Location: Nashville
(36.1660°N, 86.7840°W)
Time: 18:06:36
(UTC-06:00)

Transit 2A Rocket - Visible Passes

Search period start: 22 January 2022 00:00
Search period end: 01 February 2022 00:00
Orbit: 584 x 918 km, 66.7° (Epoch: 22 January)

Date Brightness Start Highest point End Pass type
(mag) Time Alt. Az. Time Alt. Az. Time Alt. Az.
22 Jan 7.9 03:16:36 12° E 03:16:36 12° E 03:17:17 10° E visible
22 Jan 4.9 04:56:35 63° W 04:56:51 64° WSW 05:01:47 10° SSE visible
22 Jan 6.5 17:40:38 10° SSE 17:45:06 22° ESE 17:49:31 11° ENE visible
22 Jan 5.9 19:21:26 10° SW 19:27:17 54° WNW 19:29:29 36° N visible
23 Jan 6.1 04:16:09 38° SE 04:16:09 38° SE 04:19:12 10° SE visible
23 Jan 6.8 05:56:07 12° WSW 05:56:07 12° WSW 05:57:47 10° WSW visible
23 Jan 5.3 18:38:33 10° SSW 18:44:31 88° WNW 18:48:55 20° NNE visible
23 Jan 7.7 20:24:21 10° W 20:28:00 16° NW 20:28:52 16° NW visible
24 Jan 7.7 03:35:47 12° SE 03:35:47 12° SE 03:36:08 10° SE visible
24 Jan 6.6 05:15:45 18° SW 05:15:45 18° SW 05:17:29 10° SSW visible
24 Jan 5.5 17:56:06 10° S 18:01:54 55° ESE 18:07:52 10° NE visible
24 Jan 7.2 19:39:58 10° WSW 19:44:52 25° NW 19:48:11 16° N visible
25 Jan 7.2 04:35:25 12° S 04:35:25 12° S 04:35:51 10° S visible
25 Jan 6.5 18:56:17 10° SW 19:01:52 39° NW 19:07:23 11° NNE visible
26 Jan 5.8 18:13:05 10° SW 18:19:01 65° WNW 18:25:08 10° NNE visible
26 Jan 7.9 20:00:32 10° WNW 20:02:49 12° NW 20:05:08 10° NNW visible
27 Jan 5.4 17:30:20 10° SSW 17:36:18 77° ESE 17:42:27 10° NNE visible
27 Jan 7.6 19:15:24 10° W 19:19:36 19° NW 19:23:49 10° N visible
28 Jan 7.1 18:31:17 10° WSW 18:36:30 29° NW 18:41:48 10° N visible
29 Jan 6.4 17:47:47 10° SW 17:53:34 47° WNW 17:59:28 10° NNE visible
30 Jan 7.8 18:51:12 10° WNW 18:54:22 14° NW 18:57:33 10° NNW visible
31 Jan 7.5 18:06:33 10° W 18:11:12 22° NW 18:15:52 10° N visible
